Home   Weather   Rouyn-Noranda   Past weeks

Flag for Canada Past Weather in Rouyn-Noranda, Quebec, Canada — Yesterday and Last 2 Weeks

Now
18 °F

Clear.


Feels Like: 8 °F
Forecast: 13 / 39 °F
Wind: 7 mph from Northeast

Location: Rouyn Airport

Current Time: Apr 24, 2017 at 1:55:07 am

Latest Report: Apr 24, 2017 at 1:00 am


Visibility: 15 mi

Pressure: 30.30 "Hg

Humidity: 73%

Dew Point: 10 °F

Location of Rouyn-NorandaLocation

Past Weather in Rouyn-Noranda — Graph

°F

Rouyn-Noranda Temperature Yesterday

Maximum temperature yesterday: 43 °F (at 8:00 am)
Minimum temperature yesterday: 23 °F (at 11:00 pm)
Average temperature yesterday: 31 °F

High & Low Weather Summary for the Past Weeks

 TemperatureHumidityPressure
High57 °F (Apr 9, 6:00 pm)100% (Apr 9, 11:00 pm)30.52 "Hg (Apr 9, 11:00 pm)
Low10 °F (Apr 18, 5:00 am)21% (Apr 18, 3:00 pm)29.69 "Hg (Apr 10, 11:00 am)
Average36 °F75%30.07 "Hg
* Reported Apr 9 12:00 am — Apr 24 12:00 am, Rouyn-Noranda, Weather by CustomWeather, © 2017

Note: Actual official high and low records may vary slightly from our data, if they occured in-between our weather recording intervals... More about our weather records

Advertising

Rouyn-Noranda Weather History for the Previous 24 Hours

Scroll right to see more
 ConditionsComfort  
Time TempWeatherWind HumidityBarometerVisibility
12:00 am
Mon, Apr 24
19 °FClear.3 mph68%30.30 "Hg15 mi
11:00 pm
Sun, Apr 23
23 °FClear.6 mph58%30.27 "Hg15 mi
10:00 pm25 °FClear.6 mph54%30.25 "Hg15 mi
9:00 pm25 °FPassing clouds.5 mph59%30.22 "Hg15 mi
8:00 pm27 °FPassing clouds.7 mph59%30.20 "Hg15 mi
7:00 pm28 °FPassing clouds.7 mph55%30.18 "Hg15 mi
6:00 pm28 °FScattered clouds.8 mph59%30.16 "Hg15 mi
5:00 pm30 °FPartly sunny.12 mph64%30.15 "Hg15 mi
4:00 pm27 °FPartly sunny.12 mph69%30.15 "Hg15 mi
3:35 pm27 °FPartly sunny.14 mph74%30.15 "Hg15 mi
3:07 pm27 °FLight snow. Partly sunny.14 mph74%30.14 "Hg15 mi
2:23 pm27 °FOvercast.14 mph80%30.13 "Hg15 mi
2:00 pm27 °FLight snow. Overcast.15 mph80%30.12 "Hg15 mi
1:49 pm27 °FLight snow. Overcast.15 mph80%30.11 "Hg15 mi
1:00 pm27 °FLight snow. Overcast.12 mph86%30.09 "Hg15 mi
12:29 pm27 °FLight snow. Mostly cloudy.12 mph93%30.08 "Hg3 mi
12:00 pm27 °FSnow flurries. Ice fog.15 mph93%30.07 "Hg1 mi
11:00 am30 °FSnow flurries. Low clouds.12 mph93%30.01 "Hg1 mi
10:00 am32 °FSnow flurries. Low clouds.9 mph93%29.97 "Hg1 mi
9:24 am34 °FSnow flurries. Dense fog.12 mph93%29.96 "Hg1 mi
9:08 am36 °FLight rain. Low clouds.14 mph87%29.94 "Hg5 mi
8:00 am43 °FMostly cloudy.7 mph66%29.88 "Hg15 mi
7:00 am41 °FMostly cloudy.6 mph66%29.89 "Hg15 mi
6:00 am41 °FMostly cloudy.8 mph66%29.89 "Hg15 mi
5:00 am39 °FMostly cloudy.5 mph65%29.89 "Hg15 mi
4:00 am37 °FOvercast.5 mph65%29.90 "Hg15 mi
3:00 am37 °FPassing clouds.9 mph65%29.91 "Hg15 mi
2:00 am37 °FPassing clouds.9 mph60%29.94 "Hg15 mi
1:00 am39 °FPassing clouds.12 mph56%29.96 "Hg15 mi
Weather by CustomWeather, © 2017

See weather overviewHow to use our weather pages